Content
SEND FEEDBACK

Daily
Averages
Monthly
Summary
United States of America

COUSHATTA, LOUISIANA


Home > North America > United States > Louisiana
Elevation: 120 feet     Latitude: 31 55N     Longitude: 093 18W

WEATHER
 
SELECT A DAY
Number of Records: 324,764;   Date Range: 2/14/99 - 9/16/14
 
SHARE

PRINT THIS DATA

[ ← Previous Day ]
WEATHER ALMANAC - JANUARY 3, 2014
[ Next Day → ]
[ °C ]   °F
Weather ElementAverageHighLow
Temperature35.7 °F47.3 °F (2:55 pm)28.4 °F (6:55 am)
Dewpoint22.6 °F25.7 °F (12:35 am)19.6 °F (3:55 pm)
Humidity61.3 %79 % (12:35 am)34 % (2:55 pm)
Barometer30.39 in30.51 in (8:55 am)30.25 in (11:35 pm)
Wind Speed4.5 mph9.2 mph (9:15 am)
Weather ElementAverage
Visibility10 mi
Wind DirectionSE (130.7 °)

Weather ElementTotal
Precipitation---
Heating Degree Days27.2 (Base 65)
Averaged from 71 records on January 3, 2014
WEATHER CONDITIONS BREAKOUT
WIND DIRECTION BREAKOUT
WEATHER BY HOUR - JANUARY 3, 2014
[ °C ]   °F
Local TimeTemperatureDewpointHumidityBarometerVisibilityWind DirectionWind SpeedGust SpeedPrecipitationEventsConditions
12:35 AM31.6 °F25.7 °F79 %30.43 in10.0 miNNW (340°)4.6 mphClear
12:55 AM31.8 °F25.2 °F76 %30.43 in10.0 miNNW (340°)5.8 mphClear
1:15 AM31.3 °F25.0 °F77 %30.44 in10.0 miNorth (350°)5.8 mphClear
1:35 AM31.1 °F25.2 °F79 %30.45 in10.0 miNorth (350°)6.9 mphClear
1:55 AM31.1 °F24.8 °F77 %30.45 in10.0 miNorth (350°)5.8 mphClear
2:15 AM30.7 °F24.4 °F77 %30.45 in10.0 miNNW (340°)5.8 mphClear
2:35 AM30.2 °F24.3 °F79 %30.46 in10.0 miNNW (340°)3.5 mphClear
2:55 AM30.4 °F23.9 °F77 %30.46 in10.0 miNorth (360°)4.6 mphClear
3:15 AM30.0 °F23.7 °F77 %30.46 in10.0 miCalmClear
3:35 AM29.8 °F22.6 °F75 %30.47 in10.0 miNNW (340°)3.5 mphClear
3:55 AM29.5 °F22.8 °F76 %30.47 in10.0 miNorth (10°)5.8 mphClear
4:15 AM28.9 °F22.8 °F78 %30.46 in10.0 miNorth (360°)5.8 mphClear
4:35 AM28.9 °F22.3 °F76 %30.46 in10.0 miNNW (340°)3.5 mphClear
4:55 AM28.8 °F22.3 °F77 %30.46 in10.0 miNorth (10°)3.5 mphClear
5:15 AM28.9 °F22.1 °F76 %30.46 in10.0 miNNE (30°)4.6 mphClear
5:35 AM29.7 °F22.6 °F75 %30.47 in10.0 miNE (40°)4.6 mphClear
5:55 AM29.7 °F22.1 °F73 %30.46 in10.0 miNE (50°)3.5 mphClear
6:15 AM29.3 °F22.1 °F75 %30.47 in10.0 miENE (60°)6.9 mphClear
6:35 AM29.1 °F21.7 °F74 %30.48 in10.0 miENE (60°)3.5 mphClear
6:55 AM28.4 °F21.2 °F74 %30.49 in10.0 miCalmClear
7:15 AM28.4 °F21.2 °F74 %30.49 in10.0 miEast (80°)4.6 mphClear
7:35 AM28.9 °F21.7 °F74 %30.49 in10.0 miEast (80°)6.9 mphClear
7:55 AM29.8 °F22.3 °F73 %30.50 in10.0 miEast (90°)5.8 mphClear
8:15 AM30.6 °F22.6 °F72 %30.50 in10.0 miEast (100°)5.8 mphClear
8:35 AM31.1 °F22.5 °F70 %30.50 in10.0 miEast (100°)5.8 mphClear
8:55 AM32.0 °F22.5 °F68 %30.51 in10.0 miEast (100°)6.9 mphClear
9:15 AM32.5 °F22.1 °F65 %30.51 in10.0 miEast (90°)9.2 mphClear
9:35 AM33.8 °F22.5 °F63 %30.51 in10.0 miESE (110°)6.9 mphClear
9:55 AM34.3 °F21.6 °F60 %30.51 in10.0 miEast (80°)6.9 mphClear
10:15 AM36.1 °F22.1 °F57 %30.50 in10.0 miEast (100°)8.1 mphClear
10:35 AM36.1 °F20.7 °F53 %30.50 in10.0 miENE (70°)5.8 mphClear
10:55 AM37.6 °F20.7 °F51 %30.49 in10.0 miEast (100°)4.6 mphClear
11:15 AM38.8 °F21.6 °F50 %30.48 in10.0 miCalmClear
11:35 AM39.9 °F20.8 °F47 %30.47 in10.0 miENE (60°)4.6 mphClear
11:55 AM41.0 °F20.5 °F44 %30.46 in10.0 miCalmClear
12:15 PM41.9 °F20.7 °F43 %30.45 in10.0 miEast (100°)4.6 mphClear
12:35 PM42.6 °F20.7 °F42 %30.43 in10.0 miENE (60°)5.8 mphClear
12:55 PM44.2 °F21.2 °F40 %30.42 in10.0 miCalmClear
1:15 PM44.2 °F19.9 °F38 %30.40 in10.0 miENE (70°)5.8 mphClear
1:35 PM45.1 °F20.8 °F38 %30.39 in10.0 miEast (90°)4.6 mphClear
1:55 PM46.0 °F21.0 °F37 %30.38 in10.0 miCalmClear
2:15 PM46.2 °F20.8 °F37 %30.37 in10.0 miESE (120°)3.5 mphClear
2:35 PM46.8 °F20.5 °F35 %30.37 in10.0 miCalmClear
2:55 PM47.3 °F20.1 °F34 %30.36 in10.0 miENE (70°)4.6 mphClear
3:15 PM47.3 °F19.8 °F34 %30.35 in10.0 miCalmClear
3:35 PM47.3 °F19.9 °F34 %30.34 in10.0 miCalmClear
3:55 PM46.9 °F19.6 °F34 %30.34 in10.0 miCalmClear
4:15 PM46.8 °F20.3 °F35 %30.34 in10.0 miSE (140°)4.6 mphClear
4:35 PM46.0 °F20.8 °F37 %30.33 in10.0 miSouth (170°)4.6 mphClear
4:55 PM44.6 °F21.4 °F40 %30.33 in10.0 miSE (140°)5.8 mphClear
5:15 PM41.5 °F23.0 °F48 %30.32 in10.0 miSSE (150°)4.6 mphClear
5:35 PM40.1 °F23.9 °F52 %30.31 in10.0 miSSE (160°)5.8 mphClear
5:55 PM39.2 °F24.4 °F56 %30.31 in10.0 miSSE (150°)3.5 mphClear
6:15 PM38.7 °F24.4 °F57 %30.30 in10.0 miCalmClear
6:35 PM39.2 °F23.4 °F53 %30.29 in10.0 miSE (130°)4.6 mphClear
6:55 PM37.6 °F23.0 °F56 %30.29 in10.0 miSE (140°)4.6 mphClear
7:15 PM36.1 °F23.5 °F60 %30.28 in10.0 miSE (140°)5.8 mphClear
7:35 PM35.6 °F23.5 °F62 %30.27 in10.0 miSE (140°)5.8 mphClear
7:55 PM36.3 °F23.9 °F61 %30.27 in10.0 miSE (130°)4.6 mphClear
8:15 PM36.1 °F23.9 °F61 %30.27 in10.0 miSE (140°)5.8 mphClear
8:35 PM35.4 °F24.3 °F64 %30.27 in10.0 miSSE (150°)6.9 mphClear
8:55 PM35.8 °F24.6 °F64 %30.27 in10.0 miSSE (150°)6.9 mphClear
9:15 PM34.0 °F23.9 °F67 %30.27 in10.0 miSSE (150°)6.9 mphClear
9:35 PM32.9 °F24.4 °F71 %30.27 in10.0 miSouth (170°)5.8 mphClear
9:55 PM32.9 °F24.6 °F72 %30.27 in10.0 miSouth (170°)5.8 mphClear
10:15 PM32.5 °F24.1 °F71 %30.27 in10.0 miSouth (180°)3.5 mphClear
10:35 PM32.0 °F23.9 °F72 %30.27 in10.0 miSouth (170°)4.6 mphClear
10:55 PM32.0 °F23.7 °F71 %30.27 in10.0 miSouth (170°)4.6 mphClear
11:15 PM31.1 °F23.5 °F74 %30.26 in10.0 miSouth (170°)5.8 mphClear
11:35 PM31.1 °F23.7 °F74 %30.25 in10.0 miSouth (170°)4.6 mphClear
11:55 PM30.4 °F24.1 °F77 %30.25 in10.0 miSSE (160°)4.6 mphClear
Hourly data recorded from KIER, located miles away from Coushatta, Louisiana







STORIES FROM OUR PARTNERS